Wiarton Airport
CYVV : now visible

Airfield :











YOU CAN JOIN US ON...

 
LOGIN :

Register | Disclaimer

   EN    FR    IT 

 









Legend :    VFR   Marginal VFR   IFR   Intensive IFR   Very Intensive IFR
Visi :
Ceiling :
>= 8 km
>= 3000ft
5 to 8 km
1000 to 3000 ft
1500m to 5 km
500 to 1000 ft
800 to 1500m
200 to 500 ft
< 800m
< 200 ft
Symbols :   Thunderstorms  Fog  Heavy snow  Heavy precipitations  Wind > 20 kt






- Airport Elevation : 729 ft
- IATA code : YVV


CYVV - Wiarton

CURRENT METAR :
  • 170000Z 17008G17KT 15SM FEW050 BKN250 25/11 A2992 RMK CU1CI6 SLP133 DENSITY ALT 2100FT

EXPIRED METARs :
  • 162300Z 17012G18KT 15SM FEW120 BKN250 26/11 A2992 RMK AC1CI6 SLP133 DENSITY ALT 2200FT
  • 162200Z 32003KT 280V030 15SM BKN250 24/14 A2996 RMK CI7 CC ASOCTD PRESFR SLP148 DENSITY ALT 1900FT
  • 162100Z 33002KT 15SM BKN250 23/14 A3001 RMK CI7 CC ASOCTD SLP166 DENSITY ALT 1800FT
  • 162000Z 31005KT 270V350 15SM BKN250 23/12 A3004 RMK CS5 HALO SLP177 DENSITY ALT 1700FT

Expired Forecast.
CZYZ FIR / North America



MET'MAP, your aeronautical weather chart ! - Copyright ORBIFLY December 2007 - Disclaimer

ORBIFLY MET'MAP TEAM :

Programming & Development : Alexandra Zaïnal
Original concept : Baudouin d'Aumeries
Technical & hardware support : Manuel Goepfert
Assistance : Marc-Olivier Méhu




SOURCES & CREDITS :

   NOAA       Earth
Advisory